Regional Weather Roundup
Issued by NWS

Home | Current Version | Previous Version | Graphics & Text | Print | Product List | Glossary On
Versions: 1 2 3 4 5 6 7 8 9 10 11 12 13 14 15 16 17 18 19 20 21 22 23 24 25 26 27 28 29 30 31 32 33 34 35 36 37 38 39 40 41 42 43 44 45 46 47 48 49 50
000
ASUS45 KPSR 021510
RWRAZ

ARIZONA REGIONAL HOURLY WEATHER ROUNDUP
NATIONAL WEATHER SERVICE PHOENIX AZ
800 AM MST MON MAR 02 2015

NOTE: FAIR INDICATES FEW OR NO CLOUDS BELOW 12,000 FEET WITH NO
SIGNIFICANT WEATHER AND/OR OBSTRUCTIONS TO VISIBILITY.

AZZ001>003-036-021600-
NORTHWEST ARIZONA

CITY           SKY/WX    TMP DP  RH WIND       PRES   REMARKS
BULLHEAD CITY  CLOUDY    48  46  93 S5        29.87F
KINGMAN        LGT RAIN  42  37  82 SE9       29.83S
$$

AZZ004>008-015-016-018-021600-
NORTH CENTRAL ARIZONA

CITY           SKY/WX    TMP DP  RH WIND       PRES   REMARKS
GRAND CANYON   RAIN      36  35  96 SW16G29   29.82R FOG     WCI  26
PRESCOTT       RAIN      41  36  82 W13       29.85R
FLAGSTAFF      RAIN      37  35  92 S15G29    29.84F FOG     WCI  28
PAYSON         PTSUNNY   45  43  93 S8        29.93F FOG
PAGE           CLOUDY    38  36  92 N5        29.79S FOG     WCI  34
$$

AZZ009>014-017-021600-
NORTHEAST ARIZONA

CITY           SKY/WX    TMP DP  RH WIND       PRES   REMARKS
WINSLOW        MOSUNNY   48  41  76 S18       29.87F
SAINT JOHNS    SUNNY     40  31  70 CALM      29.92F
WINDOW ROCK    MOSUNNY   37  34  89 SE3       29.97R
SHOW LOW       PTSUNNY   43  36  75 S20G26    29.98S
$$

AZZ023-021600-
GREATER PHOENIX AREA

CITY           SKY/WX    TMP DP  RH WIND       PRES   REMARKS
PHOENIX        PTSUNNY   64  49  57 S16G23    29.85S
BUCKEYE        CLOUDY    50  50 100 W10       29.91R
GLENDALE       LGT RAIN  55  54  94 S13       29.85S
LUKE AFB       PTSUNNY   56  53  91 SW9       29.86R
DEER VALLEY    LGT RAIN  62  48  60 S15G28    29.84R
SCOTTSDALE     CLOUDY    62  48  60 S9        29.88S
MESA-FALCON    CLOUDY    61  48  63 SE12      29.88S
MESA-GATEWAY   PTSUNNY   61  52  72 E7        29.91S
CHANDLER       CLOUDY    63  50  63 SE13      29.88F
$$

AZZ027-028-021600-
SOUTHWEST MARICOPA COUNTY AND PINAL COUNTY

CITY           SKY/WX    TMP DP  RH WIND       PRES   REMARKS
CASA GRANDE    CLOUDY    63  46  55 S17       29.90S
GILA BEND      PTSUNNY   52  52 100 W12       29.93R
$$

AZZ503-504-507>509-021600-
SOUTHEAST ARIZONA

CITY           SKY/WX    TMP DP  RH WIND       PRES   REMARKS
TUCSON         CLOUDY    61  44  53 S9        29.97S
DAVIS-MONTHAN  CLOUDY    61  44  53 SW12      29.95S
RYAN FIELD       N/A     61  46  59 S7        29.96S
NOGALES        CLOUDY    55  43  63 S13       30.01S
SIERRA VISTA   PTSUNNY   55  39  54 S16G24    29.99S
DOUGLAS        MOSUNNY   56  38  50 S23G31    30.02S
SAFFORD        MOSUNNY   60  34  37 S20       29.95R
$$

AZZ020-021-025-026-031-021600-
SOUTHWEST ARIZONA

CITY           SKY/WX    TMP DP  RH WIND       PRES   REMARKS
YUMA           LGT RAIN  53  50  89 S5        29.92R
$$

CAZ031-033-041-043-047-048-061-021600-
SOUTHERN CALIFORNIA

CITY           SKY/WX    TMP DP  RH WIND       PRES   REMARKS
DOWNTOWN L.A.  PTSUNNY   49  47  93 CALM      29.91R
L.A. AIRPORT   PTSUNNY   49  47  93 VRB3      29.91S
SAN DIEGO      PTSUNNY   54  47  77 E7        29.94R
BURBANK        PTSUNNY   46  43  89 CALM      29.90R
ONTARIO        PTSUNNY   47  43  86 E3        29.90R
RIVERSIDE      PTSUNNY   47  43  86 NE5       29.91R
PALM SPRINGS   PTSUNNY   52  48  86 NE3       29.91R
EL CENTRO NAS  LGT RAIN  52  50  93 E3        29.91R
IMPERIAL       CLOUDY    53  50  89 S3        29.91R
BLYTHE         CLOUDY    51  50  96 S7        29.90R
NEEDLES        CLOUDY    50  46  86 S3        29.86R
$$

NVZ020-UTZ003-021600-
SOUTHERN NEVADA-UTAH

CITY           SKY/WX    TMP DP  RH WIND       PRES   REMARKS
LAS VEGAS      PTSUNNY   46  40  79 S6        29.77F
SALT LAKE CITY CLOUDY    39  32  76 S3        29.78F
$$

NMZ009-TXZ055-021600-
NEW MEXICO-WEST TEXAS

CITY           SKY/WX    TMP DP  RH WIND       PRES   REMARKS
ALBUQUERQUE    PTSUNNY   36  29  75 N12       30.05S WCI  28
EL PASO        CLOUDY    55  32  41 SW3       30.07R
$$


........................KEY........................
SKY/WX - SKY CONDITION/WEATHER
TMP    - TEMPERATURE IN FAHRENHEIT
DP     - DEW POINT IN FAHRENHEIT
RH     - RELATIVE HUMIDITY IN PERCENT
WIND   - DIRECTION AND SPEED IN MILES PER HOUR (MPH)
VRB    - VARIABLE WIND DIRECTION
PRES   - MEAN SEA LEVEL PRESSURE IN INCHES OF MERCURY
         F - FALLING PRESSURE   R - RISING PRESSURE
         S - STEADY PRESSURE
VSB    - VISIBILITY IN MILES
HX     - HEAT INDEX IN FAHRENHEIT
WCI    - WIND CHILL INDEX IN FAHRENHEIT
TC     - TEMPERATURE IN CELSIUS WHICH IS ALSO KNOWN AS
         TEMPERATURE IN CENTIGRADE
AFB    - AIR FORCE BASE
         LUKE AFB IS LUKE AIR FORCE BASE
         DAVIS-MONTHAN IS DAVIS-MONTHAN AIR FORCE BASE
NAS    - NAVAL AIR STATION
         EL CENTRO NAS IS EL CENTRO NAVAL AIR STATION
N/A    - NOT AVAILABLE


USA.gov is the U.S. government's official web portal to all federal, state and local government web resources and services.